Location: Ammerl�gen
(47.2167°N, 9.6000°E)
Time: 12:07:59
(UTC+00:00)

CZ-4 R/B DEB - Pass Details

Date: 18 October 2021
Orbit: 738 x 791 km, 98.5° (Epoch: 26 November)

Event Time Altitude Azimuth Distance (km) Brightness Sun altitude
Exits shadow 17:39:21 18° 93° (E) 1,755 ? -12.8°
Maximum altitude 17:41:15 23° 61° (ENE) 1,551 ? -13.1°
Drops below altitude 10° 17:45:04 10° 11° (N) 2,258 ? -13.7°
Sets 17:47:45 0° 357° (N) 3,187 ? -14.2°
